Weather in Lebedevka

Russia / Tyumen Oblast     56°47′24″N   66°57′24″E
temp.,
°C
wind,
m/s
gust,
m/s
humid.,
%
clouds,
%
prec.,
mm/h
press.,
hPa
HPBL,
m
27 january, thu
thu2723:00−14s3892100 0.0 1027110
02:00−13s41184100 0.0 1026180
05:00−13s41289100 0.0 1025227
08:00−13s5138159 0.0 1024276
11:00−11ssw41289100 0.0 1024291
14:00−9ssw41190100 0.0 1024398
17:00−9ssw41092100 0.0 1024351
20:00−10ssw31094100 0.0 1024269
28 january, fri
fri2823:00−11sw399566 0.0 1025197
02:00−14sw399739 0.0 1025149
05:00−16sw379714 0.0 1026115
08:00−17sw269861 0.0 102685
11:00−13sw369198 0.0 1026148
14:00−9wsw358543 0.0 1026264
17:00−15ssw22975 0.0 10269
20:00−17s229854 0.0 102720
29 january, sat
sat2923:00−18sse229811 0.0 102618
02:00−18sse229962 0.0 102630
05:00−18se22100100 0.0 102634
08:00−16se24100100 0.0 102657
11:00−11se3694100 0.1 1025154
14:00−9ese3589100 0.0 1024221
17:00−11ese3892100 0.0 1024162
20:00−13ese41188100 0.0 1023211
30 january, sun
sun3023:00−13ese41186100 0.0 1021244
02:00−14ese41186100 0.0 1019236
05:00−14se41087100 0.0 1017222
08:00−15se3989100 0.0 1016215
11:00−12sse3791100 0.0 1014218
14:00−9ssw4689100 0.6 1013506
17:00−13ssw379638 0.6 1014124
20:00−16ssw39965 0.0 1015163
31 january, mon
mon3123:00−16ssw399510 0.0 1016139
02:00−15s3109648 0.0 1016171
05:00−11s41197100 0.0 1016241
08:00−7ssw4129483 0.2 1016403
11:00−3ssw5119298 0.3 1017682
14:00−3sw598797 0.0 1018574
17:00−6ssw4119394 0.1 1020335
20:00−7ssw4119474 0.0 1021328